www.pogodaiklimat.ru

ПОГОДА в Муррее, KY

  • Прогноз погоды в Муррее
  • Монитор погоды в Муррее
  • Климат в Муррее

АРХИВ ПОГОДЫ в Муррее

Время (UTC), дата Ветер
(напр.,м/с)
 
Видим.   Явления Облачность Т
(С)
Тd
(С)
f
(%)
Тe
(С)
Тes
(С)
Комфортность

P
(гПа)

Po
(гПа)
Тmin
(С)
Tmax
(С)
R
(мм)
SD
(см)
08:55 23.03 СВ  16 км    ясно  +3.0  -1.0  75  -1  -1      1002.4         
09:15 23.03 СВ  16 км    ясно  +4.0  -2.0  65  +1  +1      1002.7         
09:35 23.03 СВ  16 км    ясно  +3.0  -2.0  70  -0  -0      1003.1         
09:55 23.03 В  16 км    ясно  +3.0  -2.0  70  -0  -0      1003.1         
10:15 23.03 СВ  16 км    ясно  +3.0  -2.0  70  -0  -0      1003.4         
10:35 23.03 В  16 км    ясно  +3.0  -2.0  70  -0  -0      1003.4         
10:55 23.03 В  16 км    ясно  +2.0  -2.0  75  -2  -2      1003.7         
11:15 23.03 В  16 км    ясно  +2.0  -1.0  80  -2  -2      1004.1         
11:35 23.03 В  16 км    ясно  +3.0  -2.0  70  -1  -1      1004.4         
11:55 23.03 В  16 км    ясно  +5.0  -1.0  65  +2  +2      1005.0         
12:15 23.03 В  16 км    ясно  +6.0  -1.0  61  +3  +3      1005.0         
12:35 23.03 В  16 км    ясно  +7.0  0.0  61  +4  +5      1005.0         
12:55 23.03 В  16 км    ясно  +8.0  -1.0  53  +5  +6      1005.0         
13:15 23.03 В  6
{8} 
16 км    ясно  +9.0  -3.0  43  +6  +7      1005.4         
13:35 23.03 В  4
{8} 
16 км    ясно  +9.0  -4.0  40  +6  +8      1005.4         
13:55 23.03 В  6
{8} 
16 км    ясно  +9.0  -5.0  37  +6  +7      1005.4         
14:15 23.03 В  16 км    ясно  +10.0  -4.0  37  +8  +13      1005.4         
14:35 23.03 В  4
{7} 
16 км    ясно  +11.0  -4.0  35  +9  +13      1005.4         
14:55 23.03 В  16 км    ясно  +11.0  -4.0  35  +9  +13      1005.4         
15:15 23.03 ЮВ  16 км    ясно  +12.0  -4.0  32  +11  +19      1005.4         
15:35 23.03 ЮВ  16 км    ясно  +12.0  -4.0  32  +11  +20      1005.4         
15:55 23.03 ЮВ  16 км    ясно  +12.0  -4.0  32  +11  +20      1005.4         
16:15 23.03 В  16 км    ясно  +13.0  -3.0  33  +12  +23  опасность
простуды 
  1005.0         
16:35 23.03 ЮВ  16 км    ясно  +13.0  -4.0  30  +12  +25  опасность
простуды 
  1005.0         
16:55 23.03 В  16 км    ясно  +13.0  -4.0  30  +12  +25  опасность
простуды 
  1004.7         
17:15 23.03 ЮВ  16 км    ясно  +14.0  -3.0  31  +13  +25  опасность
простуды 
  1004.7         
17:35 23.03 В  16 км    ясно  +14.0  -4.0  28  +13  +20      1004.1         
18:35 23.03 В  4
{8} 
16 км    ясно  +16.0  -4.0  25  +15  +24      1002.7         
18:55 23.03 СВ  16 км    ясно  +16.0  -5.0  23  +15  +23      1002.4         
19:15 23.03 СВ  16 км    ясно  +17.0  -4.0  23  +17  +25      1002.4         
19:35 23.03 В  16 км    ясно  +17.0  -4.0  23  +16  +23      1002.4         
19:55 23.03 СВ  16 км    ясно  +17.0  -4.0  23  +17  +24      1002.1         
20:15 23.03 В  16 км    ясно  +17.0  -4.0  23  +17  +21      1002.1         
20:35 23.03 В  16 км    ясно  +17.0  -3.0  25  +17  +22      1002.1         
20:55 23.03 СВ  16 км    ясно  +17.0  -4.0  23  +17  +22      1001.7         
21:15 23.03 В  16 км    ясно  +17.0  -5.0  22  +18  +21      1001.7         
21:35 23.03 В  16 км    ясно  +17.0  -4.0  23  +17  +20      1001.7         
21:55 23.03   16 км    ясно  +16.0  -4.0  25  +16  +21      1002.1         
22:15 23.03   16 км    ясно  +15.0  -4.0  27  +15  +16      1002.1         
22:35 23.03 СВ  16 км    ясно  +15.0  -5.0  25  +15  +16      1002.1         
22:55 23.03 СВ  16 км    ясно  +15.0  -4.0  27  +15  +16      1002.1         
23:15 23.03 СВ  16 км    ясно  +14.0  -5.0  26  +14  +14      1002.1         
23:35 23.03 СВ  16 км    ясно  +14.0  -3.0  31  +14  +14      1002.1         
23:55 23.03 СВ  16 км    ясно  +13.0  -4.0  30  +12  +12      1001.7         
00:15 24.03 СВ  16 км    ясно  +13.0  -2.0  35  +12  +12      1001.7         
00:35 24.03 СВ  16 км    ясно  +12.0  -1.0  41  +11  +11      1001.7         
00:55 24.03 В  16 км    2/0 3600 м
[средняя] 
+12.0  -2.0  38  +10  +10      1001.1         
01:15 24.03 В  16 км    ясно  +13.0  -2.0  35  +11  +11      1001.1         

 

Местоположение метеостанции Kyle-Oakley Field Airport: широта 36.6646 долгота -88.3728 высота над уровнем моря 176 м.

В архиве по умолчанию представлена погода в Муррее за последние 1-2 суток. Обновление информации о фактической погоде в базе происходит ежечасно! Архивные данные за месяц целиком и за предыдущие месяцы Вы можете получить, выбрав интересующий диапазон дат из раскрывающегося списка и нажав кнопку "Ввод!".

Внимание! Архив погоды МЕТАР в базе сайта хранится не более 60 дней. Нет смысла пытаться выбрать более раннюю дату.

Внимание! Время в таблицах - всемирное. Для получения местного времени необходимо прибавить поправку, которая в Муррее равна -6 ч.

Ветер - указаны скорость ветра в м/с и направление, откуда дует ветер: С - северный, СВ - северо-восточный, В - восточный, ЮВ - юго-восточный, Ю - южный, ЮЗ - юго-западный, З - западный, СЗ - северо-западный.
Видимость - горизонтальная дальность видимости в метрах или километрах. При видимости от 1 до 10 км при отсутствии осадков обычно наблюдается дымка, при ухудшении видимости до 1 км и менее - туман. В сухую погоду видимость может ухудшаться дымом, пылью или мглою.
Атмосферные явления - указаны явления, наблюдавшиеся в указанный момент времени.
Облачность - указаны через наклонную черту верхняя и нижняя облачность в баллах и высота нижней границы облаков в метрах. Внимание: облачность, как и прочие метеорологические величины в США измеряются автоматическими метеостанциями. Указанные значения в баллах носят условный характер и показывают процент времени, в течение которого, в среднем, лазерный луч высотомера отражался от облаков обратно.
T - Температура воздуха - температура, измеренная на высоте 2 м над землей.
Td - Температура точки росы - температура, при понижении до которой содержащийся в воздухе водяной пар достигнет насыщения.
f - Относительная влажность воздуха - влажноcть воздуха, измеренная на высоте 2 м над землей.
Te - Эффективная температура - температура, которую ощущает одетый по сезону человек в тени. Характеристика душности погоды. При расчете учитывается влияние влажности воздуха и скорости ветра на теплоощущения человека.
Tes - Эффективная температура на солнце - температура, которую ощущает человек, с поправкой на солнечный нагрев. Характеристика знойности погоды. Зависит от высоты солнца над горизонтом, облачности и скорости ветра. Ночью, в пасмурную погоду, а также при ветре 12 м/с и более поправка равна нулю.
P - Атмосферное давление - приведенное к уровню моря атмосферное давление.
Po - Атмосферное давление - измеренное на уровне метеостанции атмосферное давление.
Tmin - Минимальная температура - минимум температуры воздуха на высоте 2 м над землей.
Tmax - Максимальная температура - максимум температуры воздуха на высоте 2 м над землей.
R - Количество осадков - Количество выпавших осадков за 3 или 6 часов, мм.
SD - Снежный покров - Высота снежного покрова, см.